Weather History for KTRM - June, 2013

Change the Weather History Date:

Thursday, June 13, 2013

  Actual Average Record
Temperature  
Mean Temperature 92 °F 85 °F  
Max Temperature 107 °F 103 °F 115 °F (1959)
Min Temperature 77 °F 67 °F 59 °F (1998)
Degree Days  
Heating Degree Days 0 0  
Month to date heating degree days 0 0  
Since 1 June heating degree days 0 0  
Since 1 July heating degree days 1124 1181  
Cooling Degree Days 27 20  
Month to date cooling degree days 295 237  
Year to date cooling degree days 1202 910  
Since 1 June cooling degree days 295 237  
Growing Degree Days 42 (Base 50)    
Moisture  
Dew Point 43 °F    
Average Humidity 25    
Maximum Humidity 43    
Minimum Humidity 7    
Precipitation  
Precipitation 0.00 in 0.00 in 0.00 in (2015)
Month to date precipitation 0.00 0.01  
Year to date precipitation 0.44 1.81  
Since 1 July precipitation 2.62  
Snow  
Snow 0.00 in - - ()
Month to date snowfall 0.0  
Year to date snowfall 0.0  
Since 1 June snowfall  
Since 1 July snowfall 0.0  
Snow Depth 0.00 in    
Sea Level Pressure  
Sea Level Pressure 29.74 in    
Wind  
Wind Speed 7 mph (NNW)    
Max Wind Speed 15 mph    
Max Gust Speed 21 mph    
Visibility 10 miles    
Events      
T = Trace of Precipitation, MM = Missing Value Source: NWS Daily Summary

Daily Weather History Graph

Daily Weather History Graph

Search for Another Location

Airport or City:

Trip Planner

Search our weather history database for the weather conditions in past years. The results will help you decide how hot, cold, wet, or windy it might be!

Date:

Astronomy

Jun. 13, 2013 Rise Set
Actual Time 5:33 AM PDT 7:55 PM PDT
Civil Twilight 5:04 AM PDT 8:24 PM PDT
Nautical Twilight 4:29 AM PDT 9:00 PM PDT
Astronomical Twilight 3:50 AM PDT 9:39 PM PDT
Moon 10:03 AM PDT (6/13) 11:17 PM PDT (6/13)
Length of Visible Light 15h 19m
Length of Day
14h 22m
Waxing Crescent, 22% of the Moon is Illuminated
Jun 13
Waxing Crescent
Jun 16
First Quarter
Jun 23
Full
Jun 29
Last Quarter
Jul 8
New

Hourly Weather History & Observations

Time (PDT) Temp. Dew Point Humidity Pressure Visibility Wind Dir Wind Speed Gust Speed Precip Events Conditions
12:52 AM 84.0 °F 48.0 °F 28% 29.75 in 10.0 mi NNW 13.8 mph - N/A   Clear
1:52 AM 82.0 °F 48.0 °F 30% 29.75 in 10.0 mi NW 11.5 mph - N/A   Clear
2:52 AM 79.0 °F 51.1 °F 38% 29.74 in 10.0 mi WNW 10.4 mph - N/A   Clear
3:52 AM 79.0 °F 53.1 °F 40% 29.75 in 10.0 mi NW 10.4 mph - N/A   Clear
4:52 AM 77.0 °F 53.1 °F 43% 29.76 in 10.0 mi NNW 6.9 mph - N/A   Clear
5:52 AM 78.1 °F 53.1 °F 42% 29.78 in 10.0 mi NNW 10.4 mph - N/A   Clear
6:52 AM 80.1 °F 52.0 °F 38% 29.81 in 10.0 mi NNW 10.4 mph - N/A   Clear
7:52 AM 84.9 °F 50.0 °F 30% 29.83 in 10.0 mi Variable 5.8 mph - N/A   Clear
8:52 AM 88.0 °F 50.0 °F 27% 29.83 in 10.0 mi Calm Calm - N/A   Clear
9:52 AM 93.0 °F 51.1 °F 24% 29.83 in 10.0 mi ENE 4.6 mph - N/A   Clear
10:52 AM 96.1 °F 42.1 °F 15% 29.82 in 10.0 mi Variable 4.6 mph - N/A   Clear
11:52 AM 100.0 °F 39.0 °F 12% 29.80 in 10.0 mi Variable 3.5 mph - N/A   Clear
12:52 PM 102.0 °F 35.1 °F 10% 29.78 in 10.0 mi Calm Calm - N/A   Clear
1:52 PM 104.0 °F 34.0 °F 9% 29.75 in 10.0 mi Variable 3.5 mph - N/A   Clear
2:52 PM 107.1 °F 39.0 °F 10% 29.72 in 10.0 mi Variable 4.6 mph - N/A   Clear
3:52 PM 105.1 °F 32.0 °F 8% 29.70 in 10.0 mi SE 11.5 mph 16.1 mph N/A   Clear
4:52 PM 105.1 °F 28.9 °F 7% 29.68 in 10.0 mi SSE 8.1 mph - N/A   Clear
5:52 PM 105.1 °F 33.1 °F 8% 29.66 in 10.0 mi South 3.5 mph - N/A   Clear
6:52 PM 100.9 °F 37.0 °F 11% 29.67 in 10.0 mi Calm Calm - N/A   Clear
7:52 PM 97.0 °F 39.9 °F 14% 29.67 in 10.0 mi NNW 15.0 mph 20.7 mph N/A   Clear
8:52 PM 93.9 °F 36.0 °F 13% 29.68 in 10.0 mi NNW 17.3 mph 26.5 mph N/A   Clear
9:52 PM 91.9 °F 39.9 °F 16% 29.70 in 10.0 mi NNW 17.3 mph - N/A   Clear
10:52 PM 89.1 °F 43.0 °F 20% 29.70 in 10.0 mi NNW 13.8 mph - N/A   Clear
11:52 PM 87.1 °F 44.1 °F 22% 29.70 in 10.0 mi NNW 15.0 mph - N/A   Clear